Location: Izdebno
(52.6670°N, 16.2170°E)
Time: 02:55:52
(UTC+02:00)

Transit 2A - Pass Details

Date: 23 February 2024
Orbit: 596 x 956 km, 66.7° (Epoch: 21 April)

Event Time Altitude Azimuth Distance (km) Brightness Sun altitude
Rises 02:03:22 0° 318° (NW) 2,896 - -41.5°
Reaches altitude 10° 02:06:07 10° 335° (NNW) 2,026 - -41.3°
Maximum altitude 02:09:31 20° 24° (NNE) 1,515 - -40.9°
Exits shadow 02:12:53 11° 70° (ENE) 2,090 8.8 -40.6°
Drops below altitude 10° 02:13:06 10° 72° (ENE) 2,154 8.9 -40.6°
Sets 02:16:07 0° 89° (E) 3,141 9.7 -40.2°
